Voreifelwetter - Wetterstation Drove - Standort 5043'47" - 0630'49"
Wetterdaten: aktuell Mittwoch, 23.10.2019 09:00
Datum Zeit Temp. A. Feuchte A. Luftdruck Regen Wind Richtung Richtung Sonnenschein Helligkeit Taupunkt Windchill
23.10.2019 09:00 9,2 C 96 % 1015,8 hPa 0,0 mm 0,0 km/h (0 Bft) S-SW 210 0 min 6,15 klux 8,6 C 9,2 C
23.10.2019 08:45 9,0 C 96 % 1015,9 hPa 0,0 mm 0,0 km/h (0 Bft) O-SO 120 0 min 2,82 klux 8,4 C 9,0 C
23.10.2019 08:30 8,8 C 96 % 1015,9 hPa 0,0 mm 0,0 km/h (0 Bft) SW 215 0 min 1,89 klux 8,2 C 8,8 C
23.10.2019 08:15 8,6 C 96 % 1015,9 hPa 0,0 mm 0,0 km/h (0 Bft) O 95 0 min 724 lux 8,0 C 8,6 C
23.10.2019 08:00 8,5 C 96 % 1015,9 hPa 0,0 mm 0,0 km/h (0 Bft) O 95 0 min 97 lux 7,9 C 8,5 C
23.10.2019 07:45 8,5 C 96 % 1015,9 hPa 0,0 mm 0,0 km/h (0 Bft) O 95 0 min 0 lux 7,9 C 8,5 C
23.10.2019 07:30 8,5 C 96 % 1015,9 hPa 0,0 mm 0,0 km/h (0 Bft) O 95 0 min 0 lux 7,9 C 8,5 C
23.10.2019 07:15 8,6 C 96 % 1015,9 hPa 0,0 mm 0,0 km/h (0 Bft) O 95 0 min 0 lux 8,0 C 8,6 C
23.10.2019 07:00 8,6 C 96 % 1016,9 hPa 0,0 mm 0,0 km/h (0 Bft) O 95 0 min 0 lux 8,0 C 8,6 C
23.10.2019 06:45 8,8 C 96 % 1016,9 hPa 0,0 mm 0,0 km/h (0 Bft) O 95 0 min 0 lux 8,2 C 8,8 C
23.10.2019 06:30 9,1 C 95 % 1016,9 hPa 0,0 mm 0,0 km/h (0 Bft) O 95 0 min 0 lux 8,3 C 9,1 C
23.10.2019 06:15 9,4 C 95 % 1016,9 hPa 0,0 mm 0,0 km/h (0 Bft) O 95 0 min 0 lux 8,6 C 9,4 C
23.10.2019 06:00 9,5 C 95 % 1016,8 hPa 0,0 mm 0,0 km/h (0 Bft) O 95 0 min 0 lux 8,7 C 9,5 C
23.10.2019 05:45 9,6 C 95 % 1017,9 hPa 0,0 mm 0,0 km/h (0 Bft) O 95 0 min 0 lux 8,8 C 9,6 C
23.10.2019 05:30 9,6 C 95 % 1017,9 hPa 0,0 mm 0,0 km/h (0 Bft) O 95 0 min 0 lux 8,8 C 9,6 C
23.10.2019 05:15 9,6 C 95 % 1017,9 hPa 0,0 mm 0,0 km/h (0 Bft) O 95 0 min 0 lux 8,8 C 9,6 C
23.10.2019 05:00 9,6 C 95 % 1017,9 hPa 0,0 mm 0,0 km/h (0 Bft) O 100 0 min 0 lux 8,8 C 9,6 C
23.10.2019 04:45 9,6 C 95 % 1017,9 hPa 0,0 mm 0,0 km/h (0 Bft) O 100 0 min 0 lux 8,8 C 9,6 C
23.10.2019 04:30 9,6 C 95 % 1017,9 hPa 0,0 mm 0,0 km/h (0 Bft) O 100 0 min 0 lux 8,8 C 9,6 C
23.10.2019 04:15 9,6 C 95 % 1017,9 hPa 0,0 mm 0,0 km/h (0 Bft) O 100 0 min 0 lux 8,8 C 9,6 C
23.10.2019 04:00 9,6 C 95 % 1017,9 hPa 0,0 mm 0,0 km/h (0 Bft) O 100 0 min 0 lux 8,8 C 9,6 C
23.10.2019 03:45 9,6 C 95 % 1017,9 hPa 0,0 mm 0,0 km/h (0 Bft) O 100 0 min 0 lux 8,8 C 9,6 C
23.10.2019 03:30 9,4 C 95 % 1018,9 hPa 0,0 mm 0,0 km/h (0 Bft) O 100 0 min 0 lux 8,6 C 9,4 C
23.10.2019 03:15 9,2 C 95 % 1018,9 hPa 0,0 mm 0,0 km/h (0 Bft) O 100 0 min 0 lux 8,4 C 9,2 C
23.10.2019 03:00 9,1 C 95 % 1018,9 hPa 0,0 mm 0,0 km/h (0 Bft) O 100 0 min 0 lux 8,3 C 9,1 C
23.10.2019 02:45 9,0 C 94 % 1018,9 hPa 0,0 mm 0,0 km/h (0 Bft) O 100 0 min 0 lux 8,1 C 9,0 C
23.10.2019 02:30 8,9 C 94 % 1018,9 hPa 0,0 mm 0,0 km/h (0 Bft) O 100 0 min 0 lux 8,0 C 8,9 C
23.10.2019 02:15 8,9 C 94 % 1018,9 hPa 0,0 mm 0,0 km/h (0 Bft) O 100 0 min 0 lux 8,0 C 8,9 C
23.10.2019 02:00 9,0 C 94 % 1020,0 hPa 0,0 mm 0,0 km/h (0 Bft) O 100 0 min 0 lux 8,1 C 9,0 C
23.10.2019 01:45 9,3 C 94 % 1019,9 hPa 0,0 mm 0,0 km/h (0 Bft) O 100 0 min 0 lux 8,4 C 9,3 C
23.10.2019 01:30 9,6 C 94 % 1019,9 hPa 0,0 mm 0,0 km/h (0 Bft) O 100 0 min 0 lux 8,7 C 9,6 C
23.10.2019 01:15 9,8 C 94 % 1019,9 hPa 0,0 mm 0,0 km/h (0 Bft) O 100 0 min 0 lux 8,9 C 9,8 C
23.10.2019 01:00 9,9 C 93 % 1020,9 hPa 0,0 mm 0,0 km/h (0 Bft) O 100 0 min 0 lux 8,8 C 9,9 C
23.10.2019 00:45 10,2 C 94 % 1020,9 hPa 0,0 mm 0,0 km/h (0 Bft) O 100 0 min 0 lux 9,3 C 10,2 C
23.10.2019 00:30 10,3 C 94 % 1020,9 hPa 0,0 mm 0,0 km/h (0 Bft) O 100 0 min 0 lux 9,4 C 10,3 C
23.10.2019 00:15 10,3 C 94 % 1020,9 hPa 0,0 mm 0,0 km/h (0 Bft) O 100 0 min 0 lux 9,4 C 10,3 C
23.10.2019 00:00 10,3 C 94 % 1020,9 hPa 0,0 mm 0,0 km/h (0 Bft) O 100 0 min 0 lux 9,4 C 10,3 C
_ Min-Zeit 07:30 01:00 09:00 - 00:00 - - - - 07:30 07:30
Minimum _ 8,5 C 93 % 1015,8 hPa - 0,0 km/h (0 Bft) - - - - 7,9 C 8,5 C
_ Max-Zeit 00:00 06:45 01:00 00:00 00:00 - - 00:00 09:00 00:00 00:00
Maximum _ 10,3 C 96 % 1020,9 hPa 0,0 mm 0,0 km/h
O (0 Bft)
- - 0 min 6,15 klux 9,4 C 10,3 C
Durchschnitt _ 9,3 C 95 % 1018,1 hPa #0,0 mm 0,0 km/h (0 Bft) - - - #0 min. 0,316 klux 8,5 C 9,3 C